{"data":{"norad_id":53399,"epoch":"2026-05-25T03:09:08.258976Z","epoch_age_seconds":62932,"freshness":"FRESH","line1":"1 53399U 22097M   26145.13134559 -.00000194  00000+0  59262-5 0  9991","line2":"2 53399  53.2131 140.9613 0001329  60.5008 299.6116 15.08842128210055","mean_motion":15.08842128,"eccentricity":0.0001329,"inclination_deg":53.2131,"raan_deg":140.9613,"arg_perigee_deg":60.5008,"mean_anomaly_deg":299.6116,"bstar":5.9262e-6,"rev_number":21005,"period_min":95.437420077126,"perigee_km":538.81749908781,"apogee_km":540.65626996632,"semimajor_km":6917.8738845271,"source":"CELESTRAK","updated_at":"2026-05-25T13:38:17.397566Z"}}